Temperature
25 25 24 25 26 26 26 26 25 26 26 25 24 24 24 24 24 24 23 23 23 22 21 21 20 20 19 19 19 18 18 18 17 17 17 17 17 16 16 16 16 16 16 16
25 24 25 26 26 26 26 25 25 26 26 25 24 24 25 24 24 24 23 23 23 22 21 21 20 19 19 19 18 18 18 17 17 17 17 17 16 16 16 16 16 16 16 16
25 25 26 26 25 25 25 25 25 25 25 25 24 23 24 24 24 23 23 23 22 22 21 20 20 19 19 18 18 18 18 17 17 17 17 16 16 16 16 16 16 16 16 16
25 25 25 25 25 25 24 25 25 25 24 23 24 22 23 24 23 23 23 22 22 21 21 20 19 19 18 18 18 18 17 17 17 17 16 16 16 16 16 16 16 16 16 16
24 25 25 24 25 25 25 25 25 25 24 23 24 23 23 24 23 23 23 22 22 21 21 20 19 19 18 18 18 18 17 17 17 17 16 16 16 16 16 16 16 16 16 16
24 25 25 24 25 25 25 24 24 24 24 22 24 24 23 23 23 23 23 22 21 21 20 20 19 18 18 18 18 17 17 17 17 16 16 16 16 16 16 16 16 16 16 16
23 24 25 24 24 24 24 23 22 22 22 22 25 24 23 23 24 23 23 22 21 21 20 19 19 18 18 18 17 17 17 17 16 16 16 16 16 16 16 16 16 16 16 16
23 23 24 24 23 23 24 24 22 22 22 23 24 23 23 24 23 23 22 22 21 20 20 19 19 18 18 17 17 17 17 16 16 16 16 16 16 16 16 16 16 16 16 16
23 23 24 24 24 24 23 23 24 23 23 23 24 23 23 23 23 23 22 22 21 20 20 19 18 18 18 17 17 17 16 16 16 16 16 16 16 16 16 16 16 16 16 16
23 22 23 24 23 23 23 23 23 22 22 22 23 23 22 22 22 22 22 21 21 20 19 19 18 18 17 17 17 17 16 16 16 16 16 16 16 16 16 16 16 16 16 16
22 22 22 23 22 22 23 23 23 23 22 22 21 22 23 22 22 22 21 21 20 20 19 19 18 18 17 17 17 16 16 16 16 16 16 16 16 16 16 16 16 16 16 16
21 21 21 22 23 23 23 22 22 21 21 22 21 21 23 23 22 22 21 21 20 20 19 19 18 18 17 17 17 16 16 16 16 16 16 15 15 16 16 16 16 16 15 16
19 20 20 21 21 22 22 22 22 22 21 21 21 21 22 22 21 21 21 20 20 19 19 18 18 18 17 17 16 16 16 16 16 15 15 15 15 15 15 15 15 15 15 15
18 19 20 20 20 21 21 21 22 21 20 21 21 21 21 21 21 20 20 20 20 19 19 18 18 17 17 17 16 16 16 16 15 15 15 15 15 15 15 15 15 15 15 15
19 19 20 20 21 21 21 21 21 21 21 20 21 21 21 21 20 20 20 19 19 19 18 18 17 17 17 17 16 16 16 16 15 15 15 15 15 15 15 15 15 15 15 15
19 19 19 20 20 20 20 21 21 21 21 21 20 20 21 21 20 20 19 19 18 18 18 17 17 17 16 16 16 16 16 16 15 15 15 15 15 15 15 15 15 15 15 15
18 18 18 19 20 20 19 20 21 20 21 20 20 20 20 20 20 19 19 18 18 17 17 17 16 16 16 16 16 16 16 15 15 15 15 15 15 14 14 14 15 15 15 15
18 18 17 18 18 18 19 21 21 20 20 20 20 20 19 19 19 18 18 17 17 17 16 16 16 16 16 16 15 15 15 15 15 15 15 14 14 14 14 14 14 14 14 14
18 17 17 17 17 18 19 20 20 19 19 20 19 19 19 18 18 18 17 16 16 16 15 15 15 15 15 15 15 15 15 15 15 15 14 14 14 14 14 14 14 14 14 14
17 17 16 17 16 17 18 19 20 19 18 19 19 18 18 18 17 16 16 16 15 15 15 15 15 15 15 15 15 14 14 14 14 14 14 14 14 14 14 14 14 14 14 14
16 16 16 16 16 17 18 19 19 17 17 18 18 17 17 17 16 16 15 15 14 14 14 14 14 14 14 14 14 14 14 14 14 14 14 14 14 13 13 13 13 13 13 13
16 16 16 16 16 16 18 18 17 17 17 17 17 17 16 16 15 15 14 14 14 14 14 14 14 14 14 14 14 13 13 14 14 14 14 13 13 13 13 13 13 13 13 13
16 16 16 16 16 17 17 17 17 17 17 16 16 16 15 15 14 14 14 13 13 13 13 13 13 13 13 13 13 13 13 13 13 13 13 13 13 13 13 13 13 13 13 13
16 17 16 16 16 16 16 16 16 16 16 15 15 14 14 14 14 13 13 13 12 12 12 12 12 12 12 12 12 12 13 13 13 13 13 12 12 12 12 12 12 12 12 12
15 16 16 15 16 16 15 15 15 15 15 14 14 14 13 13 13 13 12 12 12 12 12 12 11 12 12 12 12 12 12 12 12 12 12 12 12 12 12 12 12 12 12 12
15 14 14 14 15 15 15 14 14 14 14 13 13 13 12 12 12 12 12 11 11 11 11 11 11 11 11 11 11 11 11 11 11 11 11 11 11 11 12 12 12 12 12 12
Wind_Speed
6 6 7 6 6 7 7 6 5 2 4 3 3 4 4 5 4 4 4 3 3 4 5 5 5 5 4 4 2 3 4 4 4 3 3 2 2 2 2 2 4 4 4 6
6 8 6 4 4 6 8 7 6 3 3 3 4 5 4 5 5 3 3 3 3 3 4 5 4 5 4 3 2 3 4 3 4 3 2 2 3 2 3 2 3 3 4 5
8 2 1 4 6 7 8 7 6 4 2 5 5 5 6 6 5 5 3 2 4 3 4 4 4 4 4 3 1 2 3 3 3 3 2 1 2 2 2 2 2 1 4 5
5 4 3 5 7 7 7 4 6 6 5 5 6 4 4 7 7 6 5 3 3 4 4 4 4 4 3 3 1 2 3 3 3 3 2 2 2 2 2 3 3 2 3 4
5 4 5 6 5 5 5 4 6 8 8 8 8 5 4 8 7 7 6 4 3 4 5 5 5 4 4 3 2 2 2 3 3 3 3 2 2 2 2 3 4 4 2 3
5 3 3 4 4 4 5 5 8 8 7 8 9 7 2 4 6 7 6 5 4 4 5 5 5 4 4 4 2 2 3 2 2 2 3 3 3 2 3 3 3 3 2 2
8 7 5 4 6 6 5 6 4 5 6 6 4 3 3 8 7 6 6 5 5 5 5 5 5 4 4 4 3 2 2 2 2 1 2 3 3 3 4 4 4 4 3 2
8 6 6 4 5 4 6 7 5 4 3 1 2 2 6 9 8 6 6 6 6 5 4 4 4 4 4 4 3 2 2 2 2 2 2 2 3 2 2 3 3 4 4 4
5 2 5 5 4 6 6 6 8 8 9 6 3 4 7 8 7 6 6 6 5 4 4 4 4 3 3 3 3 3 2 2 2 2 2 2 2 2 2 3 3 3 4 4
7 5 3 5 5 7 7 7 5 4 4 5 4 4 5 9 7 6 5 5 4 4 4 3 3 3 3 3 3 3 3 3 2 1 1 1 1 1 1 2 3 3 4 4
7 6 4 5 6 5 6 7 6 5 6 4 3 2 6 8 6 6 5 4 4 3 2 3 3 2 2 2 2 2 2 2 2 2 1 1 1 1 2 2 2 2 3 4
4 6 6 5 3 4 6 6 6 5 5 5 4 1 7 7 6 5 4 3 3 3 3 2 2 2 2 1 2 2 2 2 1 2 2 2 1 2 2 2 3 3 3 4
6 6 5 4 4 6 6 6 6 7 6 6 5 2 6 5 5 4 3 2 2 2 2 2 2 1 1 1 1 2 2 2 2 2 3 3 2 3 3 3 2 2 2 3
5 7 7 6 4 3 6 6 7 7 6 7 6 4 3 2 2 1 1 1 1 1 1 1 1 1 1 1 2 2 3 3 3 3 3 4 3 3 2 2 2 3 3 2
5 8 9 9 9 9 9 9 9 10 10 9 8 6 5 2 2 2 2 1 1 1 1 1 1 1 1 2 3 3 3 3 3 3 3 4 4 3 2 2 3 2 3 3
5 7 9 10 10 11 12 12 11 12 10 10 9 7 4 3 3 3 3 2 2 2 1 1 2 3 3 3 3 2 2 3 3 4 4 4 3 3 3 3 3 3 3 3
5 7 7 8 8 11 11 9 9 8 8 9 8 4 3 3 3 3 3 2 3 3 2 2 3 3 4 4 4 4 3 3 4 5 5 4 4 4 4 3 3 3 3 2
8 8 5 7 8 9 3 0 2 4 4 4 3 2 3 3 3 2 3 3 3 3 4 3 3 4 4 4 4 4 4 4 4 5 5 5 4 4 3 3 3 3 3 3
8 6 5 5 8 7 3 3 4 4 4 3 2 2 3 3 3 1 5 5 4 4 4 4 4 5 4 4 4 4 4 4 4 5 5 5 5 4 4 4 4 4 3 4
7 8 7 6 7 6 1 0 2 4 4 1 1 2 3 3 4 2 4 5 5 5 5 5 4 4 4 4 4 4 5 5 5 4 4 5 5 5 5 5 4 3 3 4
7 8 10 10 8 4 1 1 2 4 1 2 2 3 3 3 3 4 5 5 5 5 6 5 5 4 4 3 4 4 5 4 4 3 3 4 5 5 5 4 3 3 4 4
5 5 7 7 8 4 1 0 1 1 3 3 4 4 4 4 5 5 5 5 5 5 6 5 5 5 4 3 4 5 5 4 3 2 3 3 4 5 4 4 3 3 4 4
4 4 2 3 2 1 1 1 2 3 3 4 4 5 4 4 5 5 4 5 5 6 6 6 5 5 4 4 5 6 5 3 2 2 2 3 4 4 4 5 4 4 4 4
4 4 5 5 3 3 3 4 3 4 5 4 4 5 5 5 5 5 5 5 6 5 6 6 6 5 5 5 5 5 5 3 2 2 3 3 4 4 4 4 4 4 5 5
5 4 6 7 5 3 3 4 5 5 5 6 5 5 5 6 6 6 6 6 6 5 5 5 5 6 6 6 6 5 5 4 3 4 4 4 3 4 4 4 4 5 5 6
6 6 6 5 5 5 5 4 5 5 5 5 6 6 6 6 6 7 6 5 6 6 6 6 6 7 7 7 7 6 5 4 4 4 3 3 3 3 3 3 3 4 5 6
Wind_Direction
212 228 233 233 241 274 287 279 273 201 145 176 224 236 189 169 176 183 177 165 154 143 132 123 119 115 96 93 98 111 107 110 115 119 123 128 126 110 100 77 83 97 100 107
218 230 244 268 279 270 268 264 261 236 176 214 244 251 212 174 178 181 188 161 144 132 118 117 110 104 95 95 110 126 119 117 120 130 146 150 143 136 123 106 91 103 109 112
233 232 224 246 257 261 260 262 271 269 250 234 240 249 217 175 164 165 181 159 144 140 129 126 126 112 112 101 97 101 109 108 114 127 116 127 111 106 107 125 128 128 109 114
240 246 242 246 254 265 266 277 271 267 264 257 232 255 198 164 164 169 165 150 139 132 124 124 115 113 118 120 118 101 101 108 112 122 125 130 128 143 161 157 151 146 119 116
243 230 247 251 266 280 282 301 272 260 260 268 251 249 205 159 167 164 151 148 143 132 127 125 123 122 124 113 105 105 97 99 112 121 135 133 136 163 166 157 150 147 144 132
255 257 268 279 277 277 289 273 260 251 255 256 246 235 181 154 150 142 138 141 132 120 121 119 122 125 119 114 102 97 104 103 114 135 153 156 172 182 156 152 153 154 155 157
222 223 224 253 261 232 248 257 249 220 215 236 215 196 111 101 95 106 123 129 123 110 108 108 109 123 125 124 126 127 122 122 123 159 169 184 184 189 172 169 171 167 169 168
232 213 203 213 251 268 252 253 265 284 275 276 183 169 115 111 101 105 116 119 116 112 112 110 108 109 125 132 141 152 136 149 163 189 199 202 190 185 170 172 172 179 182 175
298 205 166 189 233 260 261 260 270 280 288 280 231 134 128 125 117 105 105 108 117 121 117 111 110 114 119 139 159 167 166 174 183 202 201 205 202 195 183 181 187 180 183 175
295 289 209 183 214 229 258 284 286 271 284 275 251 211 162 144 135 119 107 107 112 111 118 119 117 117 120 136 166 174 185 187 188 204 221 206 189 207 201 194 191 185 191 179
290 275 239 209 214 230 231 246 258 269 264 275 284 52 96 124 116 115 112 103 107 112 114 124 124 128 132 134 153 173 190 187 190 201 221 233 194 208 192 181 175 194 191 181
289 280 262 235 219 226 241 255 265 266 278 285 286 96 100 98 96 96 98 105 110 115 120 126 134 142 143 150 177 190 190 176 208 214 198 212 206 204 200 195 191 205 197 188
324 275 262 219 219 219 229 234 255 267 272 269 267 159 112 107 93 88 84 85 99 114 127 136 130 165 176 193 193 199 203 184 197 213 204 208 218 219 207 213 200 199 205 195
294 267 262 263 294 265 247 250 253 256 256 263 260 231 169 119 89 53 51 51 67 91 116 147 172 193 209 222 225 217 212 199 205 205 210 209 210 216 218 226 217 204 210 200
273 266 268 273 283 281 265 256 252 253 257 263 272 270 280 323 339 332 347 37 4 334 325 321 288 258 246 239 237 228 210 205 207 205 217 218 207 198 206 216 227 214 205 189
257 273 275 267 263 267 266 255 247 248 254 260 268 269 294 318 318 324 328 343 331 314 324 336 305 293 280 272 260 262 225 213 208 208 220 212 207 199 203 214 215 206 208 187
251 261 277 268 258 266 255 248 242 242 243 252 261 275 319 309 320 329 337 351 337 333 349 337 316 300 288 276 271 259 254 228 214 217 221 207 202 208 210 211 207 199 197 182
265 271 270 271 265 249 230 328 251 251 262 281 294 307 310 328 332 357 25 26 359 351 350 332 309 293 291 280 274 267 247 237 225 220 218 209 199 195 198 204 202 203 196 179
243 251 261 257 260 258 238 250 255 261 263 280 288 313 336 354 320 23 33 16 4 2 344 327 312 299 296 292 281 278 262 244 235 230 215 204 195 189 194 208 213 211 193 181
220 233 244 254 257 259 202 79 305 273 246 351 310 315 325 328 302 334 15 5 355 352 340 329 320 311 303 298 288 276 266 255 244 235 222 208 193 190 199 208 220 211 193 190
209 221 228 244 251 258 281 323 294 252 285 32 4 351 339 324 327 343 350 353 351 344 335 331 327 320 309 305 297 290 282 270 263 240 219 210 192 194 202 207 212 203 193 191
235 232 230 237 245 241 82 328 257 348 16 4 353 350 348 339 335 337 343 346 340 334 330 328 328 326 325 318 304 292 285 277 278 260 213 203 195 200 203 194 209 202 187 189
239 252 265 248 254 14 19 334 9 10 347 347 352 355 345 324 322 327 330 331 330 327 327 327 324 319 323 325 314 299 293 294 286 269 215 204 205 204 188 190 203 200 189 193
253 268 262 262 254 293 322 340 352 345 335 340 343 334 327 321 321 321 320 319 318 318 320 322 319 316 316 317 311 311 310 301 280 264 237 217 206 200 195 196 196 195 194 197
291 281 267 264 273 290 294 304 319 322 324 327 327 322 320 320 316 316 314 315 316 316 315 314 312 303 304 312 313 317 317 307 277 259 245 232 221 203 202 201 203 199 199 197
260 266 264 269 289 285 288 308 312 308 309 314 315 315 315 310 307 310 309 313 314 312 311 311 310 312 311 311 310 309 305 298 286 275 256 233 224 212 206 200 200 202 195 193
Height
1501 1503 1504 1500 1498 1499 1499 1501 1503 1501 1499 1504 1508 1508 1507 1509 1511 1513 1515 1517 1518 1521 1522 1524 1525 1526 1527 1528 1528 1528 1529 1529 1530 1531 1531 1532 1534 1535 1536 1537 1538 1539 1540 1541
1501 1503 1498 1497 1497 1499 1500 1503 1503 1500 1498 1503 1506 1507 1504 1506 1509 1512 1513 1515 1517 1520 1521 1523 1524 1525 1526 1527 1528 1528 1528 1529 1529 1530 1531 1532 1533 1534 1536 1537 1537 1539 1540 1541
1500 1499 1497 1498 1499 1501 1501 1502 1502 1503 1500 1500 1506 1510 1505 1504 1507 1510 1513 1514 1516 1519 1521 1522 1524 1525 1526 1526 1527 1528 1528 1528 1529 1530 1531 1532 1533 1534 1535 1536 1537 1538 1540 1541
1497 1496 1497 1499 1500 1500 1504 1498 1499 1502 1507 1509 1505 1518 1506 1502 1505 1508 1511 1513 1515 1518 1520 1521 1523 1524 1525 1526 1527 1527 1528 1528 1528 1529 1530 1531 1532 1533 1534 1536 1537 1538 1539 1540
1498 1496 1498 1500 1500 1499 1500 1498 1499 1501 1504 1508 1503 1511 1507 1500 1506 1506 1509 1512 1515 1517 1519 1520 1522 1523 1524 1525 1526 1527 1527 1528 1528 1529 1530 1531 1532 1532 1534 1535 1536 1537 1538 1540
1497 1496 1497 1499 1498 1498 1498 1500 1500 1500 1505 1516 1501 1506 1509 1502 1501 1503 1507 1511 1514 1516 1518 1520 1521 1522 1523 1524 1525 1526 1526 1527 1528 1528 1529 1530 1531 1532 1533 1534 1535 1536 1537 1539
1500 1497 1496 1498 1499 1498 1500 1507 1516 1517 1519 1513 1492 1500 1507 1498 1499 1502 1506 1510 1513 1515 1517 1519 1520 1521 1522 1523 1524 1525 1526 1526 1527 1527 1528 1529 1530 1531 1532 1533 1534 1535 1536 1538
1500 1502 1497 1497 1500 1502 1500 1503 1518 1523 1516 1506 1495 1503 1503 1497 1500 1503 1506 1509 1512 1515 1517 1518 1519 1520 1521 1522 1523 1524 1525 1525 1526 1527 1527 1528 1529 1530 1531 1531 1533 1534 1535 1536
1499 1502 1495 1496 1498 1499 1502 1501 1497 1506 1505 1509 1501 1499 1501 1497 1500 1503 1506 1509 1512 1515 1516 1518 1519 1520 1521 1522 1522 1523 1524 1524 1525 1526 1526 1527 1528 1529 1529 1530 1531 1532 1533 1535
1500 1503 1496 1495 1498 1499 1500 1500 1503 1508 1516 1518 1507 1502 1505 1502 1502 1504 1507 1509 1512 1514 1516 1517 1518 1519 1520 1521 1522 1522 1523 1523 1524 1524 1525 1526 1526 1527 1528 1529 1530 1531 1532 1533
1501 1504 1501 1497 1499 1501 1501 1502 1501 1504 1505 1515 1518 1513 1495 1499 1501 1504 1507 1509 1512 1514 1515 1516 1517 1518 1519 1520 1520 1521 1521 1522 1522 1523 1523 1524 1525 1525 1526 1527 1528 1529 1530 1531
1503 1504 1503 1498 1495 1495 1498 1500 1503 1513 1510 1504 1511 1514 1494 1498 1501 1504 1506 1509 1511 1513 1514 1515 1516 1517 1518 1518 1519 1519 1520 1520 1520 1521 1522 1522 1523 1523 1524 1525 1526 1527 1528 1530
1508 1507 1510 1507 1505 1500 1498 1498 1500 1503 1506 1509 1514 1514 1498 1500 1503 1505 1507 1508 1510 1512 1513 1514 1515 1516 1516 1517 1517 1518 1518 1518 1518 1519 1519 1520 1521 1521 1522 1523 1524 1525 1526 1527
1511 1507 1509 1513 1506 1501 1501 1500 1500 1503 1509 1509 1506 1506 1501 1501 1503 1505 1506 1507 1509 1510 1511 1513 1513 1514 1515 1515 1515 1515 1515 1516 1516 1516 1517 1518 1518 1519 1520 1521 1522 1523 1524 1525
1509 1507 1502 1500 1498 1498 1499 1499 1499 1502 1502 1506 1503 1503 1502 1501 1503 1504 1505 1506 1508 1509 1510 1511 1512 1512 1513 1513 1513 1513 1513 1513 1513 1513 1514 1515 1516 1516 1517 1518 1520 1521 1522 1523
1508 1507 1503 1502 1498 1498 1498 1496 1496 1498 1498 1500 1500 1502 1500 1501 1503 1503 1504 1505 1507 1508 1508 1509 1510 1510 1510 1510 1510 1510 1510 1510 1510 1510 1511 1512 1513 1513 1514 1515 1517 1518 1519 1520
1507 1507 1508 1505 1499 1498 1499 1492 1492 1494 1495 1497 1501 1501 1499 1501 1502 1503 1504 1504 1505 1506 1507 1507 1508 1508 1508 1508 1507 1507 1507 1506 1506 1507 1508 1508 1509 1510 1511 1512 1513 1515 1516 1518
1508 1508 1509 1507 1504 1509 1498 1488 1489 1492 1494 1494 1496 1497 1499 1500 1501 1502 1503 1504 1504 1505 1505 1505 1506 1506 1505 1505 1505 1504 1504 1503 1503 1503 1504 1505 1506 1507 1508 1509 1510 1511 1513 1514
1505 1508 1510 1508 1506 1498 1493 1490 1490 1493 1495 1493 1495 1497 1498 1499 1500 1501 1502 1503 1504 1504 1504 1503 1503 1503 1502 1502 1501 1501 1500 1500 1500 1500 1500 1501 1502 1503 1504 1505 1506 1508 1509 1511
1502 1505 1510 1507 1509 1506 1496 1489 1489 1493 1497 1494 1495 1496 1498 1498 1501 1502 1502 1502 1502 1502 1501 1500 1500 1499 1499 1498 1498 1497 1496 1496 1496 1496 1496 1497 1498 1499 1500 1501 1503 1504 1506 1507
1503 1504 1507 1507 1505 1498 1492 1490 1490 1500 1500 1495 1495 1496 1497 1498 1500 1501 1500 1500 1500 1499 1499 1498 1497 1496 1495 1495 1494 1493 1493 1492 1492 1492 1492 1493 1494 1495 1496 1498 1499 1501 1502 1504
1499 1501 1501 1500 1504 1502 1492 1492 1495 1497 1495 1495 1496 1496 1497 1498 1498 1498 1498 1498 1497 1496 1496 1495 1493 1492 1491 1491 1491 1489 1489 1488 1487 1487 1488 1488 1490 1491 1492 1493 1495 1497 1498 1499
1495 1496 1494 1496 1498 1493 1492 1493 1494 1494 1495 1495 1496 1496 1496 1496 1497 1496 1496 1496 1495 1494 1493 1492 1490 1489 1488 1487 1487 1486 1485 1484 1483 1483 1483 1484 1485 1487 1488 1489 1490 1492 1494 1495
1492 1492 1492 1493 1492 1492 1493 1493 1494 1494 1495 1495 1495 1495 1495 1495 1495 1494 1493 1493 1492 1491 1490 1488 1487 1486 1484 1484 1483 1482 1481 1480 1480 1479 1480 1480 1481 1482 1483 1484 1486 1488 1489 1491
1494 1492 1492 1492 1492 1492 1493 1493 1494 1494 1494 1494 1493 1493 1493 1493 1492 1492 1491 1490 1489 1488 1487 1485 1484 1482 1481 1480 1479 1478 1477 1476 1476 1476 1476 1476 1477 1478 1479 1480 1481 1483 1485 1487
1493 1493 1494 1493 1492 1492 1492 1492 1492 1492 1492 1492 1491 1491 1490 1490 1489 1489 1487 1487 1486 1484 1483 1482 1480 1478 1477 1476 1474 1473 1472 1472 1471 1471 1472 1472 1473 1474 1475 1476 1477 1479 1481 1483